• Em Portugal
  • Lista de países
  • Para 7 dias
  • Temperatura da água
  • Mapas de satélite
  • Mapa do tempo
  • Widgets de tempo
  • user-avatar
    Iniciar Sessão

    Previsão horária em Karaman

    Hoje, 23 Outubro, Segunda-feira

    Tempo Temperatura Precipitação Vento Pressão Humidade
    00:00 +11°C° 0 mm 0 m/s 670 mmHg 44%
    01:00 +11°C° 0 mm 0 m/s 670 mmHg 45%
    02:00 +10°C° 0 mm 0 m/s 669 mmHg 46%
    03:00 +10°C° 0 mm 0 m/s 669 mmHg 47%
    04:00 +10°C° 0 mm 0 m/s 669 mmHg 48%
    05:00 +9°C° 0 mm 0 m/s 669 mmHg 49%
    06:00 +12°C° 0 mm 1 m/s 669 mmHg 44%
    07:00 +14°C° 0 mm 1 m/s 670 mmHg 38%
    08:00 +16°C° 0 mm 1 m/s 671 mmHg 33%
    09:00 +18°C° 0 mm 2 m/s 671 mmHg 31%
    10:00 +19°C° 0 mm 3 m/s 671 mmHg 29%
    11:00 +21°C° 0 mm 4 m/s 671 mmHg 27%
    12:00 +21°C° 0 mm 4 m/s 671 mmHg 27%
    13:00 +22°C° 0 mm 5 m/s 671 mmHg 27%
    14:00 +22°C° 0 mm 5 m/s 671 mmHg 28%
    15:00 +21°C° 0 mm 5 m/s 670 mmHg 36%
    16:00 +19°C° 0 mm 5 m/s 670 mmHg 43%
    17:00 +17°C° 0 mm 5 m/s 669 mmHg 51%
    18:00 +17°C° 0 mm 4 m/s 669 mmHg 58%
    19:00 +14°C° 0 mm 4 m/s 669 mmHg 65%
    20:00 +13°C° 0 mm 4 m/s 669 mmHg 72%
    21:00 +13°C° 0 mm 3 m/s 669 mmHg 72%
    22:00 +12°C° 0 mm 3 m/s 669 mmHg 73%
    23:00 +12°C° 0 mm 3 m/s 669 mmHg 73%

    Amanhã, 24 Outubro, Terça-feira

    Tempo Temperatura Precipitação Vento Pressão Humidade
    00:00 +11°C° 0 mm 3 m/s 669 mmHg 72%
    01:00 +11°C° 0 mm 3 m/s 668 mmHg 72%
    02:00 +11°C° 0 mm 3 m/s 668 mmHg 71%
    03:00 +11°C° 0 mm 3 m/s 668 mmHg 70%
    04:00 +11°C° 0 mm 3 m/s 668 mmHg 70%
    05:00 +11°C° 0 mm 3 m/s 668 mmHg 69%
    06:00 +12°C° 0 mm 4 m/s 668 mmHg 65%
    07:00 +13°C° 0 mm 4 m/s 669 mmHg 61%
    08:00 +14°C° 0 mm 5 m/s 669 mmHg 56%
    09:00 +15°C° 0 mm 6 m/s 669 mmHg 51%
    10:00 +17°C° 0 mm 7 m/s 670 mmHg 45%
    11:00 +18°C° 0 mm 8 m/s 670 mmHg 39%
    12:00 +20°C° 0 mm 8 m/s 670 mmHg 37%
    13:00 +20°C° 0 mm 8 m/s 669 mmHg 35%
    14:00 +21°C° 0 mm 9 m/s 669 mmHg 34%
    15:00 +18°C° 0 mm 8 m/s 669 mmHg 38%
    16:00 +17°C° 0 mm 7 m/s 669 mmHg 42%
    17:00 +16°C° 0 mm 7 m/s 669 mmHg 46%
    18:00 +15°C° 0 mm 6 m/s 669 mmHg 49%
    19:00 +14°C° 0 mm 6 m/s 669 mmHg 53%
    20:00 +13°C° 0 mm 5 m/s 669 mmHg 57%
    21:00 +13°C° 0 mm 5 m/s 669 mmHg 58%
    22:00 +13°C° 0 mm 5 m/s 669 mmHg 60%
    23:00 +13°C° 0 mm 4 m/s 669 mmHg 62%

    Depois de amanhã, 25 Outubro, Quarta-feira

    Tempo Temperatura Precipitação Vento Pressão Humidade
    00:00 +12°C° 0 mm 5 m/s 669 mmHg 63%
    01:00 +12°C° 0 mm 5 m/s 669 mmHg 64%
    02:00 +12°C° 0 mm 5 m/s 669 mmHg 66%
    03:00 +12°C° 0 mm 5 m/s 669 mmHg 66%
    04:00 +12°C° 0 mm 5 m/s 669 mmHg 67%
    05:00 +12°C° 0 mm 5 m/s 669 mmHg 68%
    06:00 +13°C° 0,1 mm 5 m/s 670 mmHg 68%
    07:00 +13°C° 0,1 mm 6 m/s 670 mmHg 67%
    08:00 +14°C° 0,1 mm 6 m/s 671 mmHg 67%
    09:00 +15°C° 0,2 mm 6 m/s 671 mmHg 65%
    10:00 +15°C° 0,2 mm 6 m/s 671 mmHg 63%
    11:00 +16°C° 0,2 mm 6 m/s 672 mmHg 61%
    12:00 +16°C° 0,1 mm 6 m/s 672 mmHg 60%
    13:00 +17°C° 0,1 mm 6 m/s 672 mmHg 59%
    14:00 +17°C° 0,1 mm 6 m/s 672 mmHg 58%
    15:00 +16°C° 0,1 mm 5 m/s 672 mmHg 61%
    16:00 +15°C° 0,1 mm 5 m/s 672 mmHg 64%
    17:00 +15°C° 0,1 mm 4 m/s 671 mmHg 66%
    18:00 +14°C° 0 mm 4 m/s 672 mmHg 70%
    19:00 +13°C° 0 mm 4 m/s 672 mmHg 73%
    20:00 +13°C° 0 mm 3 m/s 672 mmHg 76%
    21:00 +12°C° 0 mm 3 m/s 672 mmHg 78%
    22:00 +12°C° 0 mm 3 m/s 672 mmHg 80%
    23:00 +12°C° 0 mm 3 m/s 672 mmHg 82%

    26 Outubro, Quinta-feira

    Tempo Temperatura Precipitação Vento Pressão Humidade
    00:00 +11°C° 0 mm 3 m/s 672 mmHg 82%
    01:00 +12°C° 0 mm 2 m/s 672 mmHg 82%
    02:00 +12°C° 0 mm 2 m/s 672 mmHg 82%
    03:00 +10°C° 0 mm 2 m/s 672 mmHg 83%
    04:00 +9°C° 0 mm 2 m/s 672 mmHg 84%
    05:00 +10°C° 0 mm 1 m/s 672 mmHg 86%
    06:00 +11°C° 0 mm 1 m/s 673 mmHg 79%
    07:00 +12°C° 0 mm 1 m/s 673 mmHg 72%
    08:00 +13°C° 0 mm 1 m/s 674 mmHg 65%
    09:00 +14°C° 0 mm 1 m/s 674 mmHg 57%
    10:00 +16°C° 0 mm 1 m/s 674 mmHg 49%
    11:00 +18°C° 0 mm 1 m/s 675 mmHg 42%
    12:00 +19°C° 0 mm 1 m/s 675 mmHg 39%
    13:00 +19°C° 0 mm 1 m/s 674 mmHg 36%
    14:00 +19°C° 0 mm 2 m/s 674 mmHg 34%
    15:00 +18°C° 0 mm 2 m/s 674 mmHg 36%
    16:00 +17°C° 0 mm 2 m/s 674 mmHg 39%
    17:00 +16°C° 0 mm 2 m/s 674 mmHg 42%
    18:00 +15°C° 0 mm 2 m/s 674 mmHg 46%
    19:00 +14°C° 0 mm 2 m/s 674 mmHg 51%
    20:00 +13°C° 0 mm 2 m/s 674 mmHg 55%
    21:00 +13°C° 0 mm 2 m/s 674 mmHg 60%
    22:00 +12°C° 0 mm 2 m/s 674 mmHg 64%
    23:00 +10°C° 0 mm 2 m/s 674 mmHg 69%

    27 Outubro, Sexta-feira

    Tempo Temperatura Precipitação Vento Pressão Humidade
    00:00 +10°C° 0 mm 2 m/s 673 mmHg 74%
    01:00 +9°C° 0 mm 2 m/s 673 mmHg 79%
    02:00 +9°C° 0 mm 1 m/s 673 mmHg 84%
    03:00 +9°C° 0 mm 1 m/s 672 mmHg 86%
    04:00 +9°C° 0 mm 1 m/s 672 mmHg 88%
    05:00 +8°C° 0 mm 1 m/s 672 mmHg 90%
    06:00 +9°C° 0 mm 1 m/s 672 mmHg 85%
    07:00 +10°C° 0 mm 1 m/s 673 mmHg 81%
    08:00 +11°C° 0 mm 1 m/s 673 mmHg 76%
    09:00 +13°C° 0 mm 1 m/s 673 mmHg 67%
    10:00 +14°C° 0 mm 1 m/s 673 mmHg 58%
    11:00 +16°C° 0 mm 1 m/s 673 mmHg 50%
    12:00 +18°C° 0 mm 1 m/s 673 mmHg 45%
    13:00 +19°C° 0 mm 1 m/s 672 mmHg 40%
    14:00 +19°C° 0 mm 1 m/s 672 mmHg 36%
    15:00 +18°C° 0 mm 1 m/s 671 mmHg 38%
    16:00 +16°C° 0 mm 1 m/s 671 mmHg 41%
    17:00 +15°C° 0 mm 1 m/s 670 mmHg 44%
    18:00 +14°C° 0 mm 1 m/s 670 mmHg 46%
    19:00 +14°C° 0 mm 1 m/s 670 mmHg 48%
    20:00 +13°C° 0 mm 1 m/s 670 mmHg 50%
    21:00 +12°C° 0 mm 1 m/s 669 mmHg 50%
    22:00 +12°C° 0 mm 1 m/s 669 mmHg 50%
    23:00 +12°C° 0 mm 1 m/s 669 mmHg 49%

    28 Outubro, Sábado

    Tempo Temperatura Precipitação Vento Pressão Humidade
    00:00 +11°C° 0 mm 1 m/s 668 mmHg 48%
    01:00 +11°C° 0 mm 1 m/s 668 mmHg 47%
    02:00 +11°C° 0 mm 1 m/s 668 mmHg 45%
    03:00 +11°C° 0 mm 1 m/s 667 mmHg 44%
    04:00 +11°C° 0 mm 1 m/s 667 mmHg 43%
    05:00 +11°C° 0 mm 1 m/s 667 mmHg 42%
    06:00 +13°C° 0 mm 1 m/s 668 mmHg 39%
    07:00 +14°C° 0 mm 2 m/s 668 mmHg 35%
    08:00 +15°C° 0 mm 2 m/s 669 mmHg 32%
    09:00 +17°C° 0 mm 2 m/s 669 mmHg 31%
    10:00 +18°C° 0 mm 3 m/s 669 mmHg 29%
    11:00 +19°C° 0 mm 4 m/s 670 mmHg 28%
    12:00 +20°C° 0 mm 4 m/s 669 mmHg 27%
    13:00 +20°C° 0 mm 4 m/s 669 mmHg 27%
    14:00 +21°C° 0 mm 4 m/s 669 mmHg 26%
    15:00 +19°C° 0 mm 4 m/s 669 mmHg 29%
    16:00 +18°C° 0 mm 3 m/s 669 mmHg 33%
    17:00 +17°C° 0 mm 3 m/s 668 mmHg 36%
    18:00 +16°C° 0 mm 2 m/s 668 mmHg 39%
    19:00 +15°C° 0 mm 2 m/s 668 mmHg 42%
    20:00 +14°C° 0 mm 2 m/s 668 mmHg 45%
    21:00 +13°C° 0 mm 2 m/s 669 mmHg 46%
    22:00 +13°C° 0 mm 2 m/s 669 mmHg 47%
    23:00 +12°C° 0 mm 2 m/s 669 mmHg 49%
    Mostrar mais